Theta_e
343 347 352 351 353 355 354 355 354 354 353 353 353 354 353 353 353 352 352 352 352 352 352 351 351 351 351 349 349 349 349 350 350 350 349 350 350 351 350 349 348 349 349 348 348 348 347 347 346 345 343 342 341 341 343 345 346 347 347 348 349 349 349 349 348 347 348 348 348 348 348 348 348 348 348 349 350 349 349 350 350 348 350 351 352
343 349 352 354 353 355 354 354 354 354 353 353 353 352 353 353 352 352 351 351 352 351 351 351 351 350 350 350 351 350 350 350 349 349 349 350 350 349 350 350 349 348 348 347 347 347 347 346 345 344 342 341 340 339 338 340 343 343 344 346 347 348 348 348 348 347 347 347 348 347 347 346 346 347 347 348 348 348 347 349 350 348 348 349 351
345 348 352 353 351 355 355 354 354 354 353 353 352 352 352 352 352 352 351 351 350 351 350 351 351 350 350 350 351 350 349 349 349 348 349 349 350 349 349 350 349 348 348 347 347 347 347 345 344 343 341 340 340 339 338 338 338 341 342 343 346 347 347 347 347 347 347 347 346 347 346 346 347 348 348 347 348 347 346 346 349 348 347 348 348
345 348 351 352 348 351 354 355 354 353 353 352 352 352 351 352 351 351 351 350 350 351 350 350 350 350 350 349 350 349 348 348 348 349 349 349 349 349 348 349 349 348 348 348 347 347 346 345 343 341 340 339 339 338 337 337 337 338 341 342 343 345 347 347 346 346 347 345 348 346 344 346 345 347 348 348 348 347 346 345 346 347 348 349 349
347 347 351 352 354 351 353 354 354 354 354 353 352 352 352 351 351 351 350 350 351 350 350 350 349 349 350 349 348 348 348 348 348 348 348 348 348 349 349 348 348 347 348 348 347 346 345 342 341 339 336 337 337 337 337 337 337 338 339 341 342 343 345 347 346 345 346 344 346 346 347 346 346 346 347 347 347 346 346 345 345 345 345 347 348
346 348 350 350 352 354 349 354 354 354 354 353 353 352 352 351 351 351 350 350 351 351 350 350 349 348 347 347 347 347 346 347 347 347 347 346 347 348 348 347 348 347 347 347 346 346 343 342 340 337 334 333 335 336 336 337 338 338 339 341 342 343 344 345 344 343 344 343 341 345 344 345 344 346 347 348 347 345 344 344 345 345 344 344 345
346 348 347 349 352 351 347 353 354 355 354 354 352 352 352 351 351 350 350 350 350 351 350 350 349 348 348 347 347 346 347 346 346 346 346 346 346 346 347 347 347 347 347 347 346 344 342 341 340 336 333 332 332 334 336 336 338 338 338 340 341 342 342 342 342 341 341 341 341 342 341 344 345 345 346 346 346 345 345 345 344 344 344 343 344
348 349 348 349 351 349 346 353 355 355 354 354 352 352 352 351 351 350 350 350 350 350 350 349 349 348 348 347 346 346 346 346 346 345 346 345 345 346 347 347 346 345 346 345 345 344 342 341 338 335 333 331 331 333 335 336 336 337 338 339 340 339 340 341 341 341 340 341 340 341 341 342 344 344 345 345 345 346 344 345 345 344 344 343 343
346 348 348 348 351 346 348 350 354 352 353 352 353 352 351 350 350 351 350 350 350 350 350 349 349 348 348 347 346 347 347 346 346 346 346 345 345 345 347 346 345 344 343 343 344 343 341 340 336 334 332 330 330 331 333 334 336 336 338 338 338 338 338 339 340 337 342 340 340 339 340 341 342 344 344 344 345 346 346 345 343 344 343 342 342
344 348 347 348 354 343 348 349 353 353 353 352 352 351 351 351 350 350 350 350 350 350 350 349 349 348 347 347 346 347 347 346 346 346 345 345 345 345 346 345 344 343 343 342 342 341 340 337 335 334 331 329 330 330 331 332 334 336 336 338 338 338 339 338 339 339 337 338 338 337 338 345 342 343 343 345 345 346 344 342 343 343 342 342 341
343 346 348 348 354 343 349 352 352 351 351 352 351 352 351 350 350 350 350 350 350 350 350 349 348 347 347 347 347 347 346 346 345 345 345 345 344 345 346 345 342 342 341 342 343 343 340 337 335 333 330 328 329 330 330 331 332 334 335 337 337 337 337 338 335 337 338 338 338 337 336 343 340 342 345 345 344 344 343 342 342 343 343 342 342
342 347 348 350 344 342 348 350 351 352 352 352 351 350 350 350 350 350 349 350 350 350 349 349 348 347 346 347 347 347 346 346 345 344 345 344 344 344 345 344 342 341 340 340 343 342 341 338 335 332 329 327 328 328 329 329 330 332 333 335 336 335 334 334 336 336 338 338 334 338 338 337 338 341 342 343 343 344 343 342 343 343 343 342 342
344 344 347 352 352 339 344 348 349 352 352 352 352 351 350 350 350 350 349 348 350 350 349 349 348 346 346 347 346 346 346 346 345 345 344 345 344 344 344 343 343 342 340 341 342 341 340 338 335 332 329 327 327 327 328 329 330 330 331 332 333 334 333 330 335 335 336 337 336 337 338 339 339 344 341 342 343 342 342 340 341 341 342 341 340
341 343 345 345 351 343 338 341 345 350 352 352 352 351 351 350 350 349 350 350 350 349 349 349 348 347 346 346 346 346 346 346 345 345 344 344 344 344 343 343 342 340 339 339 340 340 339 337 335 332 329 328 327 326 327 328 330 331 331 331 331 331 329 330 333 334 335 335 335 337 337 337 338 342 337 339 339 339 340 340 338 339 339 339 339
341 344 344 345 350 349 338 336 341 343 348 351 351 350 351 350 350 349 348 348 348 349 349 349 348 347 347 346 346 346 346 345 343 345 344 345 344 344 343 343 341 340 340 341 340 339 337 336 334 332 330 328 327 326 326 327 328 330 330 329 329 328 327 330 334 334 333 335 335 335 337 336 341 337 335 337 337 336 336 337 337 337 336 335 336
340 341 342 342 343 349 348 340 334 335 341 346 347 349 350 349 349 349 349 349 347 347 348 348 348 347 347 347 346 345 344 345 344 344 344 343 343 343 342 342 341 340 341 341 340 338 336 334 333 331 329 328 327 325 324 325 327 328 328 328 326 327 326 322 332 333 333 333 333 335 335 336 338 337 336 335 335 335 335 335 335 335 334 334 333
338 340 340 340 343 343 344 347 344 330 333 336 342 344 345 348 348 348 348 348 347 346 346 346 347 347 347 346 347 345 344 344 344 343 343 343 342 342 341 341 340 340 340 340 339 337 335 333 332 330 329 327 326 324 324 325 325 326 326 325 325 325 323 320 329 330 332 332 333 334 334 335 337 337 335 334 334 335 335 334 334 332 332 332 332
337 339 339 340 341 342 343 344 349 348 350 341 334 339 343 345 346 346 346 346 346 346 346 346 346 347 346 345 344 344 345 344 343 343 342 342 342 342 341 341 340 339 339 339 337 336 334 333 331 330 329 327 325 322 322 322 323 324 323 323 324 322 323 320 327 325 328 331 332 333 331 334 337 336 334 333 333 333 333 333 333 330 330 330 332
335 336 337 337 338 340 341 343 345 345 346 347 349 349 335 341 342 343 343 344 345 345 345 343 342 343 341 340 338 338 337 338 339 341 341 338 338 339 342 341 340 339 339 338 336 335 333 332 331 329 327 325 323 321 320 320 320 321 322 322 320 319 316 323 323 324 325 323 329 330 329 333 335 335 334 335 333 333 332 331 329 330 330 331 329
323 325 327 332 335 337 340 341 343 343 344 345 346 349 337 334 339 338 339 341 342 342 340 337 334 334 333 332 329 334 331 338 330 339 334 338 335 336 338 339 339 339 339 338 336 335 334 332 331 329 326 323 320 317 317 317 317 318 318 318 320 314 323 319 321 319 321 321 327 325 326 332 335 333 333 332 332 330 329 329 330 330 330 329 328
319 320 321 321 330 334 336 339 341 342 343 344 345 346 347 331 334 333 334 337 339 337 337 329 323 322 326 324 326 349 345 345 342 343 329 342 329 329 335 339 339 340 339 337 336 334 333 332 330 328 325 321 318 318 318 315 313 314 314 318 312 323 316 316 317 316 318 319 324 320 324 328 333 333 332 330 330 329 328 330 328 329 329 329 329
317 318 318 318 321 326 335 336 339 342 342 343 344 345 349 342 347 348 347 341 334 329 339 347 338 346 329 335 344 342 341 342 342 339 342 341 336 326 331 336 339 337 337 337 336 334 333 332 330 328 325 321 317 317 313 311 314 314 315 310 324 313 315 314 315 314 313 314 314 313 320 325 329 333 333 329 329 329 328 329 328 328 328 328 327
316 318 318 317 319 320 323 332 337 340 341 342 343 344 344 346 346 345 347 337 342 345 345 345 346 344 345 345 340 342 342 342 341 343 341 329 340 322 329 333 335 334 335 336 335 334 334 332 331 328 325 323 325 326 320 320 317 308 309 318 311 312 313 313 312 312 313 311 308 315 316 320 325 329 331 332 330 328 327 328 328 328 328 327 327
315 316 318 319 319 319 319 322 332 337 340 340 342 342 342 344 344 344 344 345 344 344 345 345 345 345 346 343 341 341 343 343 326 325 335 342 333 322 323 326 328 329 330 333 333 334 334 332 330 327 326 326 328 325 322 318 316 313 312 309 310 311 313 311 311 312 312 312 309 315 315 316 319 322 325 328 331 330 327 327 328 327 326 326 327
315 317 319 317 318 319 320 320 326 334 337 340 340 340 342 343 343 342 343 344 345 344 343 343 343 345 345 343 342 341 342 341 342 342 341 338 339 340 339 339 338 336 327 335 334 335 332 332 329 327 330 329 327 325 324 322 320 318 315 312 310 311 312 312 311 310 314 312 309 312 315 316 315 317 319 322 327 330 328 327 326 327 327 326 327
315 316 316 317 318 320 321 322 321 329 336 338 339 339 341 340 341 340 340 341 344 343 342 343 341 343 342 341 340 340 340 340 340 340 339 337 337 337 338 338 337 336 335 338 336 334 334 333 332 331 329 329 327 325 324 321 321 319 317 315 313 311 312 310 310 312 313 312 309 310 312 314 315 316 317 318 321 328 329 327 326 325 328 327 327
314 314 315 316 319 319 320 321 321 326 334 337 338 339 340 340 340 341 340 336 341 342 343 343 344 343 343 343 342 340 341 340 338 339 338 338 336 335 335 337 337 335 334 335 334 334 334 332 332 332 329 328 326 324 322 320 320 319 318 317 315 313 312 311 311 310 313 312 311 309 312 314 315 315 315 318 319 322 329 329 330 330 332 330 328
313 312 314 317 318 318 319 321 322 324 333 336 337 336 339 339 342 339 340 338 339 339 341 339 341 341 343 341 339 340 340 339 339 337 338 338 337 336 336 335 335 335 335 335 334 334 333 333 331 333 329 327 326 324 322 320 320 319 318 318 317 315 314 311 311 312 313 315 312 310 311 312 313 314 316 317 319 320 322 329 332 334 334 334 335
310 312 314 317 317 317 320 321 321 323 332 334 335 336 338 339 341 340 340 336 339 338 338 338 338 339 340 340 338 337 337 338 339 340 338 337 337 337 337 336 336 336 335 333 333 332 331 331 330 330 330 328 326 325 323 323 322 322 320 318 318 316 315 314 313 312 311 311 312 311 312 310 311 312 314 315 316 318 320 323 327 331 332 333 333
310 313 315 315 314 316 322 321 321 325 332 333 335 335 337 337 338 335 335 335 334 333 332 332 333 333 333 335 336 336 336 336 337 342 340 339 337 338 336 335 334 336 335 333 333 332 332 331 331 329 327 326 327 325 324 324 323 321 320 319 317 316 317 314 314 313 315 315 314 313 308 310 309 312 312 313 315 316 316 318 320 324 326 330 333
311 312 312 312 314 317 323 324 327 330 333 334 336 332 331 332 332 331 329 329 329 330 330 330 329 328 328 331 334 334 334 333 332 331 333 334 336 335 334 334 333 333 334 333 331 329 327 325 325 324 324 324 322 321 321 324 323 321 320 319 318 317 316 316 315 315 315 314 314 314 317 308 310 310 311 311 313 313 315 316 318 319 321 323 327
310 308 309 311 315 318 322 325 329 331 332 330 329 328 326 325 327 325 325 325 324 324 325 325 324 324 326 328 330 331 330 330 330 329 328 326 326 326 326 326 326 328 328 328 326 325 322 320 319 319 319 321 322 320 321 322 323 321 321 319 319 318 317 318 317 316 315 315 314 315 316 313 310 312 311 311 312 312 314 315 316 318 319 320 321
309 308 309 312 314 319 320 322 323 325 325 324 325 324 321 319 320 321 321 322 322 322 321 322 322 321 326 327 327 328 328 327 327 326 325 325 325 324 322 322 323 324 324 324 323 324 322 320 319 320 320 321 323 321 322 322 321 321 321 320 320 319 318 318 318 316 315 314 312 311 313 312 310 310 309 311 311 311 313 313 314 315 317 318 319
306 308 309 311 317 319 320 319 318 317 317 317 318 318 317 315 317 317 316 318 320 318 317 319 319 319 320 323 325 324 324 325 325 323 323 322 321 321 321 321 322 323 323 323 322 323 322 320 319 320 318 321 320 319 320 320 321 321 322 321 320 319 318 318 317 316 315 314 312 312 310 309 309 310 310 311 311 312 311 311 311 312 313 315 316
305 306 307 311 315 316 316 314 314 313 312 312 311 311 313 312 312 312 312 313 314 313 313 313 314 316 317 316 318 320 324 325 325 323 323 321 320 319 319 319 319 319 319 321 321 320 320 319 320 320 318 318 317 315 316 317 316 317 319 319 319 318 318 317 317 317 314 313 311 311 309 308 308 308 307 306 307 308 311 310 310 310 311 312 313
303 305 308 311 311 312 313 311 311 309 308 308 308 307 308 309 309 309 310 311 310 310 309 310 311 312 313 313 314 314 317 321 322 323 321 321 319 317 317 318 319 318 318 318 319 318 317 316 315 317 316 315 316 314 313 311 311 311 313 316 318 317 317 317 316 315 312 311 310 309 308 307 307 305 305 306 306 309 307 309 309 310 310 311 311
303 304 306 309 309 311 311 309 308 307 306 306 306 306 306 305 305 306 307 307 307 307 307 307 308 308 308 309 310 311 312 313 317 321 319 318 316 314 314 314 315 315 315 315 315 316 315 313 310 310 314 312 310 310 309 309 309 310 311 312 314 315 316 316 314 311 312 309 308 307 306 307 306 305 305 305 305 305 307 309 309 309 309 310 311
303 304 306 308 308 309 308 307 306 306 305 305 305 305 305 305 304 304 304 305 305 305 305 305 305 305 306 305 307 308 309 310 310 312 312 311 312 311 312 312 312 312 312 312 311 311 312 311 307 307 310 308 306 306 305 306 309 311 311 312 313 313 314 313 310 308 307 306 307 307 306 306 305 305 305 306 305 304 305 306 307 308 307 309 309
302 304 305 308 308 308 307 306 306 305 305 305 305 305 305 304 304 303 302 302 303 303 304 304 304 304 304 304 305 305 306 308 308 308 308 308 308 307 307 308 308 308 308 308 310 312 311 312 311 308 307 307 306 307 307 307 308 310 310 311 312 312 313 309 310 306 307 309 308 307 308 306 305 306 306 306 305 305 305 306 305 305 305 307 306
303 304 305 307 307 307 307 307 307 307 307 307 306 305 305 304 302 302 301 300 301 301 301 301 302 301 302 303 304 304 305 306 307 307 307 307 306 306 306 307 307 307 306 306 306 307 308 310 309 309 308 307 306 306 306 305 308 310 310 311 312 311 309 307 306 308 309 309 308 306 305 305 305 306 306 306 306 306 306 305 304 304 305 306 308
302 304 305 305 306 307 307 306 307 309 308 307 306 305 303 302 301 300 298 299 299 299 298 299 299 299 300 300 301 301 302 303 304 305 305 305 305 306 306 305 306 305 305 304 305 306 307 308 308 307 306 304 303 304 304 305 307 304 307 310 310 309 306 306 305 306 307 306 306 306 305 305 305 305 305 306 306 306 306 305 304 304 304 305 305
301 303 303 304 305 306 306 306 306 307 307 306 305 304 303 302 300 298 298 298 298 297 296 297 297 298 297 298 298 299 299 300 300 302 302 303 303 303 303 303 303 303 303 303 303 303 304 304 306 306 306 303 301 303 303 303 302 300 301 304 307 306 305 305 304 304 305 306 307 305 305 305 303 303 303 303 303 304 304 303 303 304 304 304 303
300 301 302 303 304 304 304 304 305 305 305 305 303 301 301 301 300 298 297 296 297 297 296 296 296 295 295 296 296 296 297 297 298 298 299 300 300 301 301 301 302 302 301 300 301 301 301 301 302 303 303 303 302 302 301 301 298 300 303 302 301 300 302 303 302 303 303 305 305 304 304 303 301 299 300 300 300 300 301 301 301 302 302 303 303
300 300 301 301 302 302 303 303 303 303 303 302 301 301 300 299 299 298 298 297 295 296 295 295 294 294 293 294 294 295 295 295 295 296 296 297 297 297 297 298 298 298 297 296 297 297 297 298 300 300 301 298 299 299 300 299 299 298 295 296 299 301 298 299 296 302 303 303 301 301 302 301 299 298 299 298 297 297 297 297 298 299 300 301 302
299 299 299 300 301 302 303 303 302 302 301 300 299 299 298 297 297 297 297 296 296 295 294 292 292 292 292 292 292 293 294 293 294 294 294 294 295 295 295 294 295 295 294 293 293 294 294 295 296 297 297 296 294 297 297 297 297 299 297 295 295 294 293 293 295 299 298 299 299 299 301 298 296 294 296 298 298 297 296 296 296 297 298 300 300
297 297 298 300 301 302 302 303 302 302 300 300 300 300 299 298 297 296 295 294 292 292 290 289 290 290 290 291 292 292 292 292 293 293 293 293 293 293 294 293 293 293 293 293 292 292 293 293 294 294 294 295 293 292 292 295 295 295 296 295 295 292 290 292 292 289 293 303 297 298 299 296 295 294 295 295 294 296 295 294 296 296 297 298 299
296 297 298 299 301 301 302 302 301 301 302 302 302 301 300 300 299 297 295 293 290 290 291 291 290 290 290 290 290 291 292 291 292 292 292 292 293 293 293 292 292 292 292 292 291 291 292 292 293 292 292 293 293 290 290 290 291 292 293 293 294 295 296 292 287 288 285 290 292 295 298 296 294 293 294 293 293 294 293 292 294 296 296 297 298
296 296 297 298 299 299 300 300 300 300 300 300 300 300 298 296 295 294 293 292 291 289 290 290 290 290 289 289 290 290 291 291 291 291 292 291 292 292 292 291 291 291 290 290 290 291 291 292 292 292 292 291 291 290 289 290 287 288 291 290 291 292 293 294 294 288 285 283 285 295 295 296 292 293 294 292 292 293 292 292 293 295 295 296 297
295 296 296 296 297 297 298 298 297 297 297 297 297 297 297 295 294 293 291 291 291 290 290 291 290 290 289 289 289 289 289 290 291 291 291 291 291 291 291 291 290 290 290 291 290 291 290 290 290 290 291 290 290 290 289 289 288 288 288 289 289 288 289 290 290 290 285 283 283 285 285 289 291 294 293 291 292 293 292 292 293 294 294 295 296
293 294 295 295 296 296 296 296 295 296 296 296 296 295 295 294 293 292 291 290 290 290 291 290 290 290 289 289 289 289 289 289 289 290 290 290 290 291 290 289 289 289 289 290 290 289 290 290 290 290 290 290 290 289 288 289 289 289 288 288 287 286 287 287 287 286 286 287 283 283 285 284 283 287 289 290 292 292 291 291 292 292 293 294 294
293 294 294 295 295 295 295 294 294 294 294 295 295 294 294 294 293 292 291 291 291 290 289 289 289 289 288 288 288 288 289 288 288 289 289 290 289 289 289 289 289 289 288 289 289 289 289 289 289 289 289 289 289 289 288 289 288 288 288 287 286 287 285 284 284 285 284 283 283 283 284 285 284 284 287 289 289 289 290 291 291 291 292 293 293
Wind_Speed
6 9 12 10 7 8 12 11 11 11 10 11 11 11 12 12 11 10 10 11 11 11 11 11 11 11 11 12 12 12 12 12 12 11 12 12 11 12 12 12 13 12 14 14 14 14 14 14 14 14 14 14 14 13 13 13 13 13 13 13 13 12 12 12 11 10 9 10 11 11 11 11 12 12 12 13 14 14 14 13 10 10 9 12 15
12 9 11 10 5 7 11 11 11 11 10 10 10 10 11 11 11 10 10 11 11 11 10 10 11 11 11 11 12 12 11 11 11 12 12 12 11 11 12 12 12 13 14 14 14 14 14 14 14 14 14 14 14 14 13 13 12 12 12 11 12 12 11 11 11 10 9 8 8 9 9 11 11 12 12 12 13 14 13 12 11 9 8 13 15
10 11 11 11 5 4 9 10 11 11 11 10 10 10 10 10 10 9 9 11 11 10 10 10 10 11 10 11 12 11 11 11 11 10 10 11 11 10 11 12 12 13 13 14 14 14 14 14 14 13 14 13 13 13 13 12 11 11 10 11 11 10 10 10 10 9 7 7 6 8 10 11 11 12 12 13 13 13 13 14 12 11 10 14 14
11 9 11 11 6 2 8 9 10 11 11 10 10 10 10 10 10 10 10 10 10 10 9 10 11 11 10 10 11 11 10 10 10 10 10 10 11 10 10 12 12 13 13 13 13 13 14 14 14 14 13 12 11 12 11 11 11 10 10 9 9 9 8 9 8 7 6 6 3 5 2 7 9 11 12 12 12 13 12 13 13 13 14 15 16
10 9 11 11 10 5 8 8 11 11 11 12 11 12 11 10 10 10 10 10 10 10 9 9 10 10 11 10 10 10 10 10 10 10 9 9 10 10 10 10 11 12 11 12 13 14 14 15 15 14 13 12 11 11 11 10 10 10 9 8 8 7 7 7 6 5 5 5 6 4 6 6 7 10 10 11 12 12 11 12 13 13 12 14 15
9 8 10 11 11 10 5 8 11 11 11 12 12 11 11 11 11 10 10 10 10 10 10 8 10 9 9 8 9 8 9 9 9 9 9 9 9 9 9 9 11 12 11 12 13 15 14 14 14 14 13 12 11 11 10 10 10 9 9 8 8 7 6 5 5 4 6 7 9 1 6 6 6 6 10 10 11 11 11 12 12 12 12 12 13
9 7 8 10 9 10 5 8 11 11 11 12 13 12 12 11 10 10 9 9 10 11 10 9 9 9 9 9 8 8 8 8 8 8 8 8 8 8 9 10 11 11 11 13 14 14 13 14 14 13 13 12 11 11 10 10 10 9 9 9 8 8 7 5 4 6 7 7 2 4 5 6 6 5 9 9 10 10 10 11 12 12 12 12 12
6 6 7 10 8 10 5 6 8 10 11 11 11 12 12 11 10 10 9 9 9 10 9 8 8 8 9 9 7 8 8 8 8 7 7 7 8 8 10 9 10 11 12 13 14 14 13 13 13 13 12 11 11 11 10 10 10 10 9 9 9 8 7 4 3 8 10 4 3 4 4 7 7 5 8 9 9 10 9 10 11 12 12 13 11
6 7 7 7 8 13 7 5 7 9 10 10 11 11 11 11 10 9 9 8 8 9 9 8 8 8 8 9 8 7 7 7 7 7 7 7 7 7 9 10 9 10 11 12 13 12 12 12 12 12 12 11 11 10 11 10 10 10 10 10 9 8 6 3 4 6 8 2 4 6 7 5 7 5 8 9 10 12 14 8 9 12 12 11 10
7 7 7 7 9 11 8 4 7 8 10 10 10 10 11 11 10 10 9 9 9 9 9 8 8 9 8 9 9 8 7 7 6 7 6 7 7 7 7 8 8 10 10 10 10 9 11 11 12 12 12 12 11 11 11 11 10 11 10 11 10 8 4 3 5 9 3 2 5 6 5 7 7 7 9 10 11 12 12 11 9 9 9 10 11
6 6 6 5 12 11 8 4 6 6 8 9 10 10 10 11 10 10 9 9 9 9 9 8 8 9 8 8 8 8 7 7 6 6 6 6 6 7 7 7 9 9 9 10 10 11 12 11 12 12 12 12 11 11 11 11 11 11 11 12 11 9 9 7 8 1 3 5 5 4 1 6 7 7 10 11 10 11 9 9 9 9 11 10 12
5 4 5 8 9 10 8 5 5 8 8 8 8 8 9 8 9 9 9 9 10 9 9 8 7 7 8 8 8 8 8 7 7 6 6 5 6 6 7 8 9 9 9 9 10 11 11 11 12 12 12 11 11 11 11 11 11 11 11 12 11 10 11 11 7 4 3 5 5 4 6 8 9 8 10 9 10 12 11 11 12 12 12 12 12
5 3 4 8 8 7 6 4 4 5 8 9 9 10 9 9 9 8 7 8 9 9 9 9 8 6 8 7 8 8 7 7 7 6 5 5 5 6 7 8 8 9 10 12 11 11 12 12 12 12 12 11 11 10 10 11 11 11 11 11 11 11 10 12 3 4 5 4 3 3 4 5 7 7 10 10 12 11 10 11 11 11 11 11 11
3 3 3 4 7 8 6 4 4 3 5 6 8 9 9 10 9 9 8 8 8 8 9 8 7 8 8 8 7 7 8 7 7 6 6 6 6 6 6 8 9 10 10 10 10 11 12 12 12 12 11 11 10 10 10 11 11 11 11 11 11 11 11 7 5 4 4 4 5 5 5 7 8 8 6 10 10 10 10 10 10 10 11 11 11
5 3 3 3 8 7 7 3 4 4 3 3 5 7 9 9 9 8 7 5 5 7 9 7 7 6 7 6 6 6 7 6 4 6 6 7 6 7 6 8 9 9 10 12 13 12 11 11 12 12 11 11 10 11 10 11 11 12 12 11 12 12 12 6 3 4 3 3 3 3 5 7 12 8 8 9 10 10 10 10 10 10 10 10 10
5 4 2 1 1 7 6 5 2 2 3 1 3 4 5 6 7 8 7 5 5 5 7 7 6 5 5 6 4 3 4 6 5 5 5 6 6 5 6 7 7 9 12 12 13 12 11 11 11 11 11 11 11 10 11 10 11 12 11 12 11 10 11 9 3 3 5 5 3 2 6 8 15 7 8 9 9 10 9 10 10 10 10 9 9
5 3 3 2 2 1 5 7 6 4 2 3 2 2 4 4 5 4 4 4 3 4 5 5 5 6 5 5 4 5 3 5 4 4 4 6 6 5 4 8 7 11 12 13 13 12 11 11 10 11 10 11 10 10 10 10 11 11 10 10 10 9 9 10 4 5 5 4 4 4 9 8 12 9 7 7 7 9 9 10 10 10 10 9 9
5 4 3 3 1 3 1 4 8 6 7 4 3 2 3 4 4 5 5 5 5 5 3 3 4 5 6 6 6 6 5 4 5 5 5 5 5 5 5 7 8 11 12 13 13 12 11 10 10 10 10 10 10 10 10 10 10 9 9 8 8 8 8 10 5 5 4 4 4 6 8 13 13 10 8 8 9 10 9 9 10 10 9 9 9
5 4 4 3 2 2 1 2 3 5 8 8 8 7 5 4 5 4 4 5 5 4 5 5 6 6 6 6 6 6 6 6 6 6 6 4 3 5 5 5 7 11 12 13 13 12 11 10 9 9 9 9 9 9 9 9 9 8 8 6 6 6 9 5 6 5 5 6 5 9 8 15 12 10 9 10 10 10 10 10 10 9 9 9 8
5 4 4 3 2 3 1 0 3 4 5 7 7 7 7 6 6 6 5 4 4 6 6 6 7 7 6 7 7 6 6 6 9 6 6 6 4 1 6 6 7 10 11 13 13 12 11 9 9 8 8 8 9 8 8 8 8 7 6 6 6 8 4 5 5 6 5 5 6 7 11 15 14 11 10 10 9 10 10 10 9 9 9 8 8
3 4 4 3 3 2 2 2 2 3 4 5 5 5 7 7 6 8 8 7 5 5 7 7 7 7 7 7 8 6 5 5 7 5 7 6 7 4 5 7 5 7 10 11 12 11 9 9 9 8 8 7 8 8 8 7 7 5 4 4 7 3 5 5 5 5 5 5 6 7 13 13 14 11 9 8 8 9 10 8 9 8 8 8 8
2 2 4 4 2 2 2 1 2 4 4 3 3 4 6 7 9 8 7 7 7 7 6 5 6 5 5 5 5 5 4 4 5 7 6 6 5 4 3 8 5 7 8 11 11 10 8 8 8 7 8 5 7 4 5 5 5 2 1 5 3 4 4 4 4 4 5 5 7 8 12 13 12 13 11 9 7 8 9 8 7 7 6 7 8
3 2 3 4 3 2 2 2 3 2 4 4 4 4 5 6 7 7 6 7 8 8 7 7 6 6 6 6 5 4 3 2 3 4 5 6 5 6 5 2 6 7 8 10 10 9 7 8 7 7 7 5 4 3 3 2 3 5 5 1 4 3 3 4 3 4 4 5 5 9 11 11 12 12 11 11 11 7 7 8 7 7 7 6 6
4 3 3 2 4 3 3 2 3 3 3 4 4 4 4 5 4 5 6 5 6 5 7 5 5 5 5 5 4 3 3 2 7 8 5 5 6 7 5 6 5 3 9 7 7 6 7 7 6 6 6 2 3 3 3 3 3 3 3 3 3 3 3 3 3 2 3 5 4 8 9 10 10 10 10 10 10 10 7 6 6 5 4 6 6
4 3 3 4 5 5 4 2 2 5 4 4 4 4 4 4 4 4 5 4 4 5 3 4 5 5 5 5 4 3 3 4 4 4 4 4 5 5 5 3 3 3 6 4 4 4 4 4 2 5 3 3 3 4 3 3 4 3 4 4 3 3 2 2 2 2 2 4 4 6 8 9 9 8 8 8 9 9 8 5 6 5 4 2 4
4 4 6 5 6 5 5 4 3 4 6 5 5 3 2 4 4 4 4 4 4 4 2 3 2 3 3 3 4 4 4 4 4 5 4 4 5 5 5 5 6 6 5 2 3 3 3 2 2 1 3 5 3 3 4 3 3 3 4 3 3 2 2 2 2 2 2 3 4 5 6 7 8 8 7 7 7 8 8 7 3 4 6 6 6
5 6 5 5 5 6 5 4 3 4 7 6 5 4 4 4 4 3 3 3 3 3 2 2 1 1 1 2 1 2 3 3 4 4 5 4 4 5 6 6 6 6 6 5 6 4 1 4 1 1 3 3 3 2 2 2 2 3 3 3 2 2 2 2 2 2 1 2 5 5 4 6 7 8 8 7 7 7 8 7 10 9 9 9 7
5 7 6 6 6 7 6 5 3 4 6 7 6 4 4 3 2 3 2 4 2 3 3 2 2 2 1 2 2 3 2 2 3 4 4 3 4 3 3 4 5 6 6 5 4 2 1 3 1 0 2 2 2 1 1 1 1 1 3 3 2 2 2 1 1 1 1 1 4 5 5 4 6 7 8 8 8 8 8 8 10 12 12 12 12
7 7 6 6 7 7 7 3 3 6 6 6 5 5 4 4 4 3 5 6 3 5 6 5 5 5 5 5 3 1 3 3 3 2 2 2 3 3 2 3 2 2 4 3 1 2 3 2 3 2 1 2 2 2 2 2 1 3 2 2 1 2 2 1 1 1 0 0 1 5 6 2 3 5 6 7 7 7 8 9 11 12 13 13 12
7 6 6 6 6 7 6 2 4 6 5 6 5 5 5 4 6 7 6 7 7 8 8 7 6 6 6 6 5 4 4 4 3 1 1 1 1 1 2 1 1 1 2 1 2 3 1 2 1 0 1 1 1 4 1 3 2 3 4 2 2 1 1 1 1 1 1 0 0 4 6 4 1 2 4 5 6 7 7 8 10 11 11 13 14
7 7 6 7 7 7 6 4 3 2 4 4 6 8 9 8 8 7 7 7 7 6 7 6 6 6 6 7 6 6 5 5 5 5 5 5 4 2 4 4 4 4 3 3 4 5 6 6 5 4 3 3 4 4 4 2 1 2 2 2 2 1 1 1 0 1 1 0 1 1 4 5 3 1 2 3 5 6 7 8 9 10 11 11 12
7 7 6 7 7 7 6 6 6 6 3 9 7 8 8 7 8 7 7 6 7 6 7 7 7 6 8 7 7 6 6 6 7 6 6 7 6 6 6 5 5 4 5 5 4 4 5 5 4 4 3 3 3 3 2 3 2 2 1 1 0 1 2 2 1 1 1 1 1 1 0 1 5 2 1 3 5 6 7 8 9 10 11 11 12
5 6 7 8 8 7 6 7 7 7 9 10 9 8 7 6 7 7 6 5 6 6 7 6 6 7 7 8 7 7 7 6 7 8 7 7 6 6 6 5 5 5 5 5 5 5 5 3 3 2 2 0 1 1 0 1 1 2 2 2 2 1 1 2 2 2 2 1 1 1 2 2 1 5 3 1 3 5 8 10 11 11 11 12 13
5 5 7 8 7 5 5 5 7 9 10 9 8 8 7 6 7 7 7 7 7 7 8 7 7 6 7 8 7 8 7 6 6 7 7 7 6 6 8 6 5 5 4 3 5 4 3 3 2 2 1 1 3 3 3 2 3 3 3 1 3 2 2 2 2 2 2 2 2 2 2 3 2 2 2 4 2 4 7 10 11 11 12 12 13
5 6 8 7 8 7 5 5 7 9 9 10 10 8 7 7 7 8 8 8 7 8 8 7 6 6 6 7 9 8 7 7 6 5 6 6 7 7 7 5 6 6 5 5 4 4 4 4 3 3 3 3 2 2 2 1 2 3 3 3 3 2 2 1 1 1 1 2 2 2 3 3 4 3 3 3 5 5 6 7 9 11 12 13 13
5 5 5 6 7 7 7 8 9 11 10 9 9 9 9 9 9 9 9 9 8 8 7 7 7 7 7 7 9 9 8 8 8 7 7 7 7 7 7 5 6 5 5 5 6 6 5 5 5 5 3 2 2 2 2 3 2 2 3 3 3 2 2 1 1 1 3 2 3 3 3 4 4 4 4 3 4 4 5 4 6 8 10 10 12
4 5 5 5 6 7 7 9 11 10 10 11 12 11 10 10 10 10 10 10 9 8 7 7 7 8 7 7 8 9 9 9 8 8 8 8 8 7 7 7 6 6 6 6 6 6 6 5 6 5 5 4 4 4 3 3 3 3 3 3 2 2 2 1 2 3 1 3 3 4 4 3 3 4 4 5 4 4 2 2 4 5 5 6 10
4 5 4 5 5 6 7 8 8 8 8 8 9 9 9 10 10 9 10 10 9 8 7 7 8 8 8 8 8 8 9 10 10 8 8 8 8 8 8 8 7 7 7 7 7 6 5 5 4 4 3 3 3 3 3 3 2 3 3 2 2 1 1 1 3 1 3 3 4 4 3 3 4 4 5 3 4 5 4 6 6 6 3 2 9
3 4 4 4 4 6 7 8 8 9 9 9 10 10 10 10 9 9 9 9 8 9 8 8 8 8 8 9 9 8 8 9 9 9 8 7 7 7 7 7 6 6 6 6 5 3 3 3 2 2 2 3 4 5 5 5 4 3 3 3 1 1 1 3 2 3 2 2 3 3 2 3 4 4 4 3 3 3 4 3 4 4 4 5 8
2 3 4 4 5 7 7 6 6 6 6 7 6 7 7 7 8 7 9 9 9 9 9 9 8 9 9 9 9 8 9 9 9 8 8 7 7 7 7 6 6 6 7 7 6 6 6 5 6 6 5 5 7 6 7 7 5 4 3 2 1 2 4 3 4 3 2 3 3 3 4 4 4 4 4 3 3 3 3 4 4 4 4 5 7
2 4 5 4 6 5 6 7 4 6 6 7 7 7 7 7 8 8 9 8 8 8 9 9 9 9 10 10 11 10 10 10 10 9 8 8 7 7 8 8 8 8 8 8 8 9 8 7 5 6 7 7 8 8 9 8 4 4 4 2 2 5 5 3 5 5 4 3 3 3 4 4 5 5 4 3 4 5 4 5 5 5 6 5 6
4 4 4 4 4 5 5 5 4 5 5 5 5 6 5 5 7 7 8 7 7 8 8 8 9 9 11 11 10 10 11 11 10 10 10 9 9 9 9 9 9 8 9 9 10 9 9 9 7 4 6 7 7 9 9 9 5 6 5 3 4 6 5 4 6 6 5 3 3 4 4 5 7 6 5 6 6 6 6 5 6 6 5 6 6
4 4 4 4 4 4 4 4 5 5 6 6 6 7 7 7 8 8 9 9 9 9 9 9 9 10 11 11 11 11 11 11 11 11 9 10 10 9 9 8 9 8 8 9 9 10 9 10 10 8 4 6 6 7 10 10 7 9 4 3 1 1 3 3 7 6 5 5 4 4 5 6 8 7 6 5 6 6 5 6 6 6 6 6 5
4 4 4 4 3 3 4 5 5 5 5 6 8 9 11 11 11 11 10 10 9 9 10 10 10 10 11 10 10 10 11 10 11 11 9 10 10 9 8 8 9 9 8 9 9 10 10 10 10 10 8 6 6 7 9 10 9 9 6 5 3 3 1 3 10 3 4 6 7 7 5 5 6 7 5 5 6 6 5 6 7 7 6 6 5
4 4 4 3 3 4 4 5 5 6 6 7 9 10 11 11 11 12 11 12 10 9 9 9 9 9 9 10 10 10 10 10 11 11 10 10 10 9 8 8 8 8 8 8 8 9 9 9 10 9 10 8 7 6 7 10 11 10 7 6 5 5 6 7 10 1 7 5 7 7 4 6 7 7 5 4 5 5 5 7 6 6 6 6 5
4 4 3 4 5 5 5 6 6 6 7 9 9 8 8 9 9 9 9 8 9 7 8 8 8 8 8 7 9 10 10 10 9 10 10 9 9 9 9 8 8 7 7 7 7 7 9 9 9 8 9 10 7 7 7 7 8 9 9 8 6 4 6 8 6 4 9 1 4 4 4 6 6 6 5 3 5 4 5 6 6 6 7 5 5
4 4 3 4 5 5 6 6 5 5 4 5 6 7 7 6 7 8 8 9 10 8 8 8 8 8 8 9 8 8 9 9 9 9 8 8 8 8 8 8 8 8 7 7 8 8 7 8 7 8 8 7 8 7 8 7 5 8 7 7 6 4 4 5 5 6 6 4 5 2 2 3 4 5 5 4 6 4 4 6 6 6 6 5 5
5 4 4 4 6 6 6 6 5 5 3 3 4 4 6 7 9 10 9 9 9 10 9 8 8 8 9 8 8 8 8 8 8 9 8 8 8 8 8 8 8 8 7 8 8 8 7 7 8 8 8 7 8 7 7 7 7 6 7 7 6 5 4 3 3 5 6 9 8 2 3 1 4 2 3 4 6 5 6 6 6 5 5 5 5
4 4 4 4 5 5 5 6 6 5 4 5 5 6 7 8 8 9 10 9 10 9 8 8 8 7 9 8 8 8 8 9 9 8 8 8 8 8 8 8 8 8 7 7 7 8 9 8 9 8 8 7 7 7 6 6 6 6 6 6 6 6 5 4 4 4 5 7 8 7 9 5 3 2 2 4 4 3 5 6 6 6 5 5 4
4 4 5 5 5 5 6 7 6 5 5 6 7 9 8 8 9 9 12 10 9 9 8 8 8 7 8 8 7 7 7 8 8 9 9 9 9 8 8 9 8 7 7 7 7 8 8 8 8 8 8 7 6 6 6 5 4 5 5 4 5 5 4 4 4 6 5 5 8 10 9 11 11 5 4 4 4 5 6 6 6 5 5 5 4
5 5 5 5 5 5 6 7 6 5 6 7 8 8 7 8 8 10 11 12 10 10 9 8 7 7 8 8 8 7 7 7 7 7 8 8 8 8 8 7 7 7 7 7 7 7 6 6 6 6 7 7 5 5 6 6 5 4 5 4 4 4 4 5 5 5 6 6 8 8 8 8 9 11 5 6 7 7 6 5 6 6 5 5 4
Wind_Direction
156 168 132 130 164 166 153 154 152 150 147 143 137 132 127 124 120 114 110 105 106 102 100 100 101 101 103 98 92 90 87 81 74 72 72 72 84 88 87 86 83 83 82 79 76 72 68 64 59 55 50 46 46 45 42 41 40 42 45 50 53 53 55 57 55 51 47 57 63 67 65 68 64 59 55 53 50 43 37 38 43 49 44 48 49
146 163 133 143 157 169 152 154 154 150 150 144 138 136 132 127 125 121 117 112 112 110 109 107 105 106 105 102 98 94 87 80 72 72 66 68 74 85 85 84 85 83 84 81 76 71 67 62 57 52 46 43 40 39 39 38 38 39 40 44 49 52 53 52 47 42 41 42 69 68 70 69 65 63 59 54 51 46 40 38 43 54 49 49 53
148 160 136 148 154 160 152 157 155 154 152 147 144 138 134 128 124 124 120 119 115 115 112 108 106 107 104 105 105 99 88 81 77 72 69 69 73 81 87 88 86 85 83 81 79 74 66 62 58 53 49 45 43 39 36 36 35 36 38 39 41 47 51 49 46 35 26 28 29 93 89 75 66 64 61 58 56 50 44 43 40 55 55 52 53
151 159 143 134 154 145 152 156 158 157 152 151 146 141 138 135 132 130 125 119 117 113 115 114 111 110 108 106 103 98 90 82 80 75 71 70 74 81 87 87 84 80 77 76 73 70 66 61 56 52 48 45 46 46 41 37 34 35 36 38 39 40 42 46 43 32 1 357 360 289 53 78 72 65 63 58 56 53 48 48 50 52 52 50 49
153 161 139 149 165 151 162 154 157 158 156 152 150 147 146 142 139 136 133 125 124 119 114 115 114 114 114 117 106 101 95 91 84 77 74 73 75 83 92 88 87 84 81 78 74 70 67 62 55 50 45 43 43 44 45 44 36 32 35 36 38 39 44 45 35 16 350 311 316 313 78 79 80 60 65 63 58 55 51 50 50 49 49 54 52
153 159 143 164 169 157 164 155 157 158 157 154 151 148 150 146 146 143 139 134 132 127 124 127 121 118 109 107 106 102 95 91 90 84 76 76 76 78 85 88 87 82 80 76 73 70 65 59 53 49 44 41 41 42 44 43 41 36 35 37 37 36 45 53 30 347 309 312 289 299 74 68 62 69 63 63 64 61 60 53 51 48 46 47 53
155 163 154 166 169 161 159 159 157 159 157 157 155 155 153 151 150 147 141 140 137 131 131 132 124 120 118 113 112 107 101 98 96 90 80 77 77 78 79 85 86 89 84 78 75 73 65 58 53 48 45 43 39 41 42 43 42 40 38 40 40 42 48 49 360 317 293 288 5 27 73 73 81 74 66 63 61 58 58 58 55 51 45 44 51
137 174 155 159 183 127 148 151 153 159 160 157 157 157 154 154 152 148 144 143 139 133 130 128 123 120 120 116 117 116 108 107 103 95 87 78 80 82 85 84 84 79 79 77 76 74 65 57 53 48 47 44 41 40 41 43 43 43 43 45 46 45 46 40 329 299 302 292 45 39 24 72 67 71 64 59 57 48 49 67 67 58 47 41 35
149 167 169 153 125 123 122 140 156 162 159 159 158 160 153 156 156 150 146 145 138 131 132 135 131 128 124 123 119 119 120 118 108 96 90 87 84 89 91 92 89 80 72 75 75 75 64 58 52 50 47 43 41 40 39 40 42 43 44 44 48 52 50 30 319 308 277 22 33 36 18 16 78 78 63 59 55 53 44 45 63 58 53 41 42
156 158 166 154 133 113 114 141 159 165 161 162 160 161 159 157 162 156 151 148 142 136 132 141 142 133 133 129 133 135 135 117 104 100 96 96 98 99 99 91 78 72 75 73 85 73 64 63 54 50 47 46 42 39 39 37 39 39 39 39 41 49 48 336 302 278 2 43 68 57 20 347 62 56 64 68 61 54 48 42 48 48 53 50 51
143 162 150 143 123 113 110 139 143 155 165 161 165 161 161 163 165 160 158 154 147 145 143 145 149 142 144 142 141 142 137 123 115 116 113 109 109 106 111 93 74 75 72 67 63 66 71 62 58 53 50 49 46 42 40 38 37 36 34 34 31 22 4 342 311 324 22 29 40 60 79 253 70 50 58 60 63 67 66 62 54 54 56 51 49
126 132 163 95 108 105 100 115 148 157 157 159 165 164 166 169 164 169 166 156 151 151 148 148 153 156 146 155 147 152 144 137 131 131 131 123 118 117 111 95 88 79 66 68 80 72 64 62 57 53 53 52 48 45 43 42 40 37 33 29 27 15 354 344 315 59 43 43 44 7 18 48 51 59 61 63 63 60 61 54 53 51 50 47 45
74 111 166 122 125 103 88 89 123 147 164 162 169 169 169 173 175 170 170 164 157 155 149 155 161 165 148 161 155 155 147 146 142 139 135 130 122 120 114 96 89 78 71 76 78 70 68 63 59 54 52 50 48 46 44 46 44 40 34 30 21 10 355 330 13 27 48 39 46 36 60 78 71 24 51 46 48 48 44 43 43 45 47 44 43
86 94 146 175 107 112 89 55 77 116 171 170 172 173 170 175 172 182 177 173 167 160 152 164 166 163 158 162 161 161 155 158 149 144 139 131 122 116 107 99 91 80 72 73 77 70 66 61 58 56 51 48 46 45 43 44 44 41 37 30 20 2 357 306 22 54 45 53 32 19 16 46 30 0 40 51 43 37 40 41 37 40 40 39 37
73 48 110 181 135 151 111 65 48 52 133 186 176 183 173 180 174 182 180 184 187 159 151 161 172 169 165 159 162 163 157 145 149 143 140 131 129 132 116 100 95 82 71 82 87 79 71 64 61 57 52 48 46 46 44 42 41 38 35 31 19 3 353 358 36 68 70 47 69 47 37 53 15 35 27 47 40 33 24 29 36 36 30 26 32
47 69 80 121 150 135 174 135 73 56 42 91 222 164 182 197 182 185 177 168 207 179 154 162 170 171 154 157 157 147 153 159 161 150 137 132 130 137 136 106 94 87 91 93 90 86 77 69 63 60 54 49 48 47 47 45 41 37 34 29 20 7 347 342 27 15 47 41 34 41 57 44 8 6 33 25 30 25 23 23 23 19 17 23 24
70 73 109 102 4 237 178 173 176 123 89 35 54 193 157 176 200 185 162 155 191 199 157 165 169 159 134 138 149 130 161 171 161 146 143 133 134 140 127 110 97 101 99 98 95 89 83 78 70 61 57 54 51 52 50 48 44 41 34 25 17 4 343 334 17 38 35 28 28 354 49 23 346 1 54 40 32 30 24 22 16 14 8 10 19
69 74 81 67 79 344 300 213 164 186 206 149 130 155 190 165 160 164 145 152 166 166 151 147 131 110 92 93 105 118 146 151 146 148 147 117 136 135 135 121 115 108 105 105 104 99 94 86 74 67 63 59 58 57 57 53 47 42 36 23 5 347 333 319 27 34 34 13 26 38 35 359 354 6 13 8 15 25 18 10 13 10 7 7 15
85 87 75 61 64 172 175 263 268 227 215 214 216 174 175 168 138 129 135 150 156 153 136 112 97 98 100 105 112 121 125 129 123 148 136 148 138 150 123 120 127 117 117 117 113 111 106 98 88 80 73 69 64 64 62 57 52 43 31 20 340 332 308 310 35 21 24 31 13 47 19 357 9 15 16 23 21 17 13 5 5 9 12 14 17
82 75 95 110 81 40 42 244 256 245 216 222 225 205 165 168 158 137 139 140 150 138 133 115 110 112 116 126 134 134 137 140 148 159 157 154 96 99 120 121 140 126 127 123 119 116 113 108 101 96 90 84 84 77 70 67 58 45 25 346 333 305 347 34 14 34 27 31 30 43 4 5 9 15 28 29 26 23 13 11 12 14 13 12 12
87 75 49 60 121 152 93 211 214 236 222 230 225 235 144 152 169 166 159 160 155 142 130 132 137 135 141 155 162 197 198 159 164 176 158 168 141 138 138 127 144 133 132 126 121 119 117 115 111 108 107 106 105 101 87 81 69 50 13 331 308 330 35 29 17 39 27 25 39 28 3 7 9 13 19 26 25 24 17 17 16 12 16 17 14
78 78 55 40 34 79 176 165 218 212 219 202 225 227 144 185 212 194 189 169 169 178 164 189 187 176 156 158 215 226 226 201 202 155 188 148 145 128 146 144 136 137 136 130 125 122 120 116 116 122 113 130 159 150 119 104 105 110 340 302 315 40 39 28 33 38 40 24 42 8 7 5 7 13 9 14 22 26 14 13 16 10 14 26 15
59 26 55 29 15 12 15 207 208 266 220 211 201 213 202 199 210 197 195 201 190 196 217 213 216 200 190 211 226 231 226 236 70 65 50 82 125 138 124 121 150 146 140 133 135 129 126 122 125 128 130 166 212 71 75 127 144 184 217 303 53 40 37 44 40 39 58 40 41 5 10 9 6 5 8 8 3 14 23 10 12 17 18 17 23
21 13 12 39 19 355 358 305 225 227 242 206 200 195 196 201 210 191 200 198 205 214 223 223 218 215 208 219 227 219 216 188 110 117 139 159 120 112 103 89 59 136 138 134 132 139 133 124 137 153 169 181 61 54 71 67 50 43 44 38 51 40 44 42 47 50 60 76 49 13 15 14 12 7 3 4 6 358 6 19 4 10 2 16 13
15 328 21 13 13 354 344 308 266 211 241 216 214 202 181 191 192 196 189 189 208 208 227 229 224 220 215 227 232 218 215 212 176 174 195 203 165 166 158 162 140 159 167 147 173 156 175 141 146 226 42 71 63 57 63 73 63 64 56 37 39 35 41 43 40 41 56 88 63 27 17 15 16 15 9 5 2 1 351 13 14 348 340 326 331
14 11 2 355 5 350 346 329 275 223 206 203 209 171 191 181 186 194 197 185 180 192 218 264 245 230 243 260 221 220 219 215 202 206 201 189 184 179 162 166 159 161 195 178 219 185 229 82 94 357 36 50 50 46 35 43 82 78 79 68 50 44 44 41 40 24 31 91 85 48 27 16 17 18 14 9 4 356 355 352 35 345 329 324 319
7 12 354 351 360 349 341 318 288 223 204 208 200 194 196 186 175 171 196 190 152 121 64 52 69 360 335 341 332 356 317 280 242 218 215 205 205 192 174 159 163 171 186 197 213 226 219 95 32 352 54 81 63 56 51 28 46 70 79 82 74 80 71 61 54 23 22 76 108 77 34 16 15 13 14 10 6 356 353 344 345 350 348 336 306
12 2 357 355 356 353 333 305 244 222 192 200 191 183 183 174 111 76 257 96 143 110 95 88 102 134 119 53 58 33 345 269 282 244 212 238 224 224 186 167 172 178 192 203 218 207 150 100 100 131 116 118 102 75 95 76 49 80 94 83 85 79 72 78 89 38 16 358 125 104 86 36 19 15 14 12 7 360 346 339 334 341 352 2 354
11 5 1 2 358 353 332 304 233 210 194 179 179 169 160 148 151 111 61 50 53 77 66 55 52 44 47 55 46 19 22 350 270 287 277 230 208 206 201 170 174 171 201 205 183 210 199 152 177 195 130 137 157 133 106 48 352 40 37 62 87 99 106 108 91 111 75 22 74 122 118 87 38 25 20 13 14 8 353 339 336 339 346 347 351
7 8 9 354 343 344 349 360 156 197 189 157 161 164 144 106 83 65 70 59 57 63 61 52 50 44 34 18 41 31 40 16 353 320 321 306 139 156 167 132 96 139 179 183 221 232 213 203 240 207 53 92 288 71 348 103 45 34 21 12 359 18 92 117 134 151 143 141 164 133 138 138 113 44 24 14 17 11 2 351 340 338 340 340 342
10 17 0 347 327 348 13 20 126 127 155 83 64 60 56 71 80 70 66 66 59 65 71 64 54 47 39 30 35 36 36 36 36 32 33 26 31 71 74 65 56 27 20 67 47 47 49 41 28 9 8 18 26 36 6 9 90 88 67 13 353 315 17 36 70 54 328 44 339 302 151 160 149 138 27 27 20 12 7 359 352 344 340 341 335
13 1 349 332 338 0 21 3 14 360 60 74 79 73 64 63 67 74 73 67 67 67 64 58 53 42 41 37 38 43 44 42 38 48 56 56 60 58 36 48 53 34 37 39 57 62 71 66 55 34 16 6 29 29 356 338 357 61 4 25 288 343 333 355 342 49 36 18 317 316 303 168 161 157 114 13 14 14 7 6 360 354 349 341 339
14 356 345 347 353 8 23 36 49 59 65 73 80 71 66 57 66 70 69 70 71 68 68 61 56 51 49 49 45 43 50 49 49 55 58 65 64 64 68 49 48 49 54 63 69 74 76 84 76 74 39 270 145 106 295 287 32 353 329 360 325 330 12 327 354 2 29 360 353 355 345 344 357 162 151 78 32 15 16 7 0 355 349 349 344
359 353 353 5 19 25 39 45 50 57 59 63 69 76 69 63 67 74 62 61 66 62 58 54 54 59 47 40 51 49 51 52 58 65 64 58 51 50 57 50 44 45 27 37 50 54 71 85 123 160 115 22 48 29 356 352 346 327 304 350 305 360 358 333 354 1 344 1 355 1 352 356 4 8 22 163 145 68 30 11 359 351 348 345 344
12 0 4 7 30 40 37 52 54 58 62 71 67 65 67 63 61 60 57 56 59 60 54 48 49 51 54 47 40 42 55 65 74 72 70 74 68 62 59 56 52 46 37 29 63 62 50 41 15 51 46 56 43 20 349 13 348 337 327 320 314 353 297 311 330 335 351 8 347 13 359 10 5 9 8 344 134 104 51 21 355 349 344 345 341
14 5 8 26 36 32 51 64 66 65 57 64 66 64 64 64 60 58 60 54 58 56 52 46 44 47 50 48 45 46 42 49 44 61 67 64 64 60 53 48 65 76 67 55 52 56 53 47 27 18 55 38 49 43 19 4 355 326 315 299 299 299 316 320 19 341 32 1 19 17 8 22 13 5 333 9 2 85 69 16 350 343 344 343 346
17 15 17 39 37 39 48 58 65 71 72 72 72 68 69 67 63 59 60 58 58 56 49 46 46 45 41 40 37 45 50 48 58 60 64 64 66 66 63 55 50 55 56 54 51 44 43 45 34 12 3 46 33 28 14 349 318 283 268 282 294 304 295 6 28 37 65 34 30 26 25 31 34 2 23 10 14 5 61 11 321 322 321 334 349
35 31 37 46 53 55 60 61 65 71 77 75 79 80 78 77 69 66 62 62 58 54 50 46 45 43 40 37 30 37 41 47 51 55 59 57 58 59 56 50 51 55 60 59 60 59 62 65 64 30 16 46 45 23 354 318 289 285 286 267 261 261 315 36 58 59 54 44 50 38 35 45 42 35 23 20 16 13 0 358 345 322 287 307 349
48 52 55 66 72 81 85 80 78 81 87 87 89 85 84 81 81 72 65 64 59 53 48 49 44 39 37 33 30 33 33 43 48 52 57 59 58 55 54 51 53 51 49 52 61 86 131 128 100 121 92 46 23 19 352 325 296 263 267 276 254 246 12 65 50 65 64 51 46 74 63 52 59 39 28 11 28 8 8 358 359 352 8 11 351
66 77 85 90 90 89 90 89 89 97 92 89 91 88 84 85 84 80 69 59 60 57 49 48 43 40 33 32 31 32 31 35 43 50 55 55 58 56 56 49 50 52 50 48 42 35 29 50 48 38 55 52 30 11 358 340 314 312 276 277 165 92 78 74 87 62 37 38 44 49 49 56 39 29 19 14 20 11 356 357 352 350 345 345 330
80 91 91 77 82 96 99 87 90 111 109 104 97 100 99 95 84 80 80 72 68 65 59 51 46 40 32 33 33 31 28 30 31 38 46 55 56 52 52 52 50 48 47 44 36 32 24 18 47 47 38 40 27 9 357 325 323 338 327 253 143 97 92 121 81 24 33 45 47 47 53 47 31 16 9 11 10 1 355 357 355 347 340 337 332
79 86 85 78 80 90 100 101 90 89 88 94 98 89 80 87 99 93 90 77 73 68 64 52 49 44 38 35 33 30 30 31 26 29 37 42 46 46 43 41 42 44 44 42 36 31 26 23 6 73 59 50 43 14 8 349 15 349 332 339 154 111 107 100 34 13 72 64 64 51 48 46 35 14 4 4 7 2 6 360 354 345 340 339 338
94 82 82 90 84 82 88 93 91 96 97 102 102 98 97 94 98 98 98 93 79 79 77 70 62 55 46 40 37 35 31 30 29 27 29 32 41 46 46 43 43 43 47 42 36 35 27 24 24 14 45 62 58 32 22 17 3 333 305 298 72 182 123 121 17 20 86 46 48 61 40 30 36 15 356 9 8 5 3 359 350 344 342 339 335
118 108 99 89 88 85 87 96 93 92 95 93 100 100 100 100 95 99 97 97 98 90 84 74 68 63 56 49 45 41 40 40 34 34 36 36 38 45 47 45 45 44 46 46 38 35 28 25 25 23 16 44 37 45 32 25 21 4 17 341 303 296 238 69 3 356 65 36 47 21 35 32 31 8 354 8 8 360 2 358 349 344 341 336 334
118 103 94 100 100 98 93 90 88 90 96 105 106 109 107 102 103 104 104 103 98 94 89 76 71 68 66 52 47 47 45 44 39 37 36 38 37 40 45 47 47 45 48 49 46 37 32 29 26 31 26 27 36 33 46 38 31 24 21 2 1 8 23 343 333 249 41 6 40 15 30 36 25 2 341 4 4 349 1 351 346 341 337 332 333
112 85 79 96 107 103 100 94 93 95 104 113 119 120 118 123 128 124 117 109 99 90 84 89 81 71 70 69 59 53 54 51 48 45 42 41 41 41 44 49 49 46 46 50 49 44 34 32 27 30 30 22 35 35 31 40 45 32 32 43 21 12 342 331 338 333 346 32 35 1 11 31 16 353 328 8 354 343 1 347 335 334 329 328 329
106 97 98 96 97 99 98 101 102 101 100 121 133 135 133 127 114 110 110 111 108 95 97 95 97 94 88 81 76 66 62 64 57 52 49 46 46 42 46 49 49 49 45 47 44 41 39 32 28 34 34 27 25 45 35 19 31 37 27 30 25 22 356 358 355 326 324 337 327 312 41 36 9 344 315 6 345 333 359 340 322 323 322 322 324
117 118 108 101 99 100 100 102 104 106 99 108 112 108 107 99 100 100 101 104 106 113 109 102 100 100 97 90 85 76 68 65 62 54 50 46 45 46 44 46 48 46 46 46 41 35 34 31 31 29 33 33 29 32 33 28 27 16 10 16 12 2 357 20 1 350 320 317 326 356 139 20 353 321 316 348 330 328 339 329 313 312 310 308 314
120 116 108 99 95 98 104 109 111 108 100 96 101 101 104 108 107 109 103 101 107 108 110 109 107 106 102 98 92 88 78 67 61 59 51 47 45 44 42 43 42 41 41 43 41 36 36 33 27 28 25 31 34 25 28 28 26 18 1 4 4 3 347 360 356 2 333 318 309 324 318 321 310 256 340 319 297 320 321 311 301 299 300 295 304
116 110 108 109 109 114 118 117 110 112 113 108 103 101 104 108 110 113 116 118 120 117 115 115 111 109 103 100 92 85 78 71 61 53 51 46 42 41 41 41 41 38 36 36 35 35 33 35 34 33 26 29 32 33 32 14 18 23 4 354 0 355 349 351 353 348 327 303 307 315 321 325 323 324 318 284 290 302 300 294 289 292 291 285 300
128 132 123 126 129 128 127 118 112 113 116 113 110 107 106 111 116 122 122 123 121 121 121 116 115 110 103 97 90 83 78 74 68 57 50 45 48 45 44 43 41 39 36 33 31 30 29 30 31 36 35 30 24 26 33 24 8 21 9 6 2 2 347 341 339 341 327 316 312 309 315 312 312 313 315 314 300 282 273 270 271 277 275 279 290